Home   Weather   Nadi   Past weeks
Flag for Fiji

Past Weather in Nadi, Fiji — Yesterday and Last 2 Weeks

Now
72 °F

Passing clouds.


Feels Like: 75 °F
Forecast: 78 / 62 °F
Wind: 8 mph from Southeast

Location: Nandi

Current Time: Jul 22, 2019 at 8:08:25 pm

Latest Report: Jul 22, 2019 at 7:00 pm


Visibility: N/A

Pressure: 29.86 "Hg

Humidity: 69%

Dew Point: 61 °F

Location of NadiLocation

Past Weather in Nadi — Graph

°F

Nadi Temperature Yesterday

Maximum temperature yesterday: 79 °F (at 11:00 am)
Minimum temperature yesterday: 68 °F (at 11:00 pm)
Average temperature yesterday: 75 °F

High & Low Weather Summary for the Past Weeks

 TemperatureHumidityPressure
High88 °F (Jul 9, 1:00 pm)100% (Jul 12, 7:00 am)30.01 "Hg (Jul 12, 7:00 am)
Low63 °F (Jul 22, 7:00 am)32% (Jul 8, 12:00 pm)29.77 "Hg (Jul 9, 3:00 pm)
Average76 °F79%29.87 "Hg
* Reported Jul 7 7:00 pm — Jul 22 7:00 pm, Nadi. Weather by CustomWeather, © 2019

Note: Actual official high and low records may vary slightly from our data, if they occured in-between our weather recording intervals... More about our weather records

Advertising

Nadi Weather History for the Previous 24 Hours

Scroll right to see more
 ConditionsComfort  
Time TempWeatherWind HumidityBarometerVisibility
7:00 pm
Mon, Jul 22
72 °FPassing clouds.8 mph69%29.86 "HgN/A
6:00 pm73 °FPassing clouds.8 mph74%29.83 "HgN/A
5:00 pm77 °FPassing clouds.13 mph54%29.83 "HgN/A
4:00 pm79 °FPassing clouds.14 mph45%29.83 "HgN/A
3:00 pm81 °FPassing clouds.12 mph42%29.80 "HgN/A
2:00 pm81 °FPassing clouds.12 mph42%29.83 "HgN/A
1:00 pm79 °FPassing clouds.12 mph42%29.86 "HgN/A
12:00 pm79 °FPassing clouds.12 mph45%29.86 "HgN/A
11:00 am77 °FPassing clouds.13 mph51%29.89 "HgN/A
10:00 am75 °FPassing clouds.12 mph54%29.92 "HgN/A
9:00 am72 °FPassing clouds.6 mph69%29.92 "HgN/A
8:00 am66 °FPassing clouds.6 mph78%29.89 "HgN/A
7:00 am63 °FPassing clouds.7 mph88%29.89 "HgN/A
6:00 am64 °FPassing clouds.6 mph83%29.86 "HgN/A
5:00 am64 °FPassing clouds.6 mph88%29.86 "HgN/A
4:00 am66 °FPassing clouds.3 mph88%29.86 "HgN/A
3:00 am68 °FPassing clouds.6 mph83%29.86 "HgN/A
2:00 am66 °FPassing clouds.3 mph94%29.89 "HgN/A
1:00 am68 °FPassing clouds.5 mph88%29.89 "HgN/A
12:00 am68 °FPassing clouds.3 mph88%29.89 "HgN/A
11:00 pm
Sun, Jul 21
68 °FPassing clouds.5 mph88%29.89 "HgN/A
10:00 pm70 °FPassing clouds.9 mph88%29.89 "HgN/A
9:00 pm72 °FPassing clouds.5 mph83%29.86 "HgN/A
8:00 pm73 °FPassing clouds.6 mph78%29.86 "HgN/A
Weather by CustomWeather, © 2019

See weather overview